This demonstration page uses our WeatherBlox Daily Observations layout. Learn more.

38.88101, -77.10428

Hourly Observations for March 26, 2017

Temp ( °F °C ) Dew Point ( °F °C ) Humidity (%) Winds ( mph kmh ) Pressure ( in mb ) Visibility ( mi km ) Precip ( " mm )
12:52 am 00:52 Cloudy 58 14.4 47 8.3 67 67 ENE 10 17 30.21 1023 10 16.09344 0 0
1:52 am 01:52 Cloudy 55 12.8 46 7.8 72 72 ENE 15 24 30.24 1024 10 16.09344 0 0
2:52 am 02:52 Mostly Cloudy 52 11.1 44 6.7 75 75 ENE 16 26 30.24 1024 10 16.09344 0 0
3:52 am 03:52 Cloudy 51 10.6 43 6.1 74 74 E 13 20 30.24 1024 10 16.09344 0 0
4:52 am 04:52 Mostly Cloudy 50 10 43 6.1 77 77 ENE 16 26 30.24 1024 10 16.09344 0 0
5:52 am 05:52 Cloudy 50 10 44 6.7 80 80 ENE 15 24 30.27 1025 10 16.09344 0 0
6:52 am 06:52 Cloudy 49 9.4 44 6.7 83 83 E 10 17 30.27 1025 10 16.09344 0 0
7:52 am 07:52 Cloudy 48 8.9 44 6.7 86 86 E 15 24 30.3 1026 10 16.09344 0 0
8:28 am 08:28 Cloudy 48 9 45 7 87 87 E 16 26 30.33 1027 10 16.09344 0 0
8:52 am 08:52 Cloudy 48 8.9 44 6.7 86 86 E 13 20 30.33 1027 10 16.09344 0 0
9:52 am 09:52 Cloudy 48 8.9 44 6.7 86 86 E 13 20 30.33 1027 10 16.09344 0 0
10:52 am 10:52 Cloudy 48 8.9 45 7.2 89 89 E 12 19 30.33 1027 10 16.09344 0 0
11:48 am 11:48 Cloudy 48 9 45 7 87 87 E 12 19 30.36 1028 10 16.09344 0 0
11:52 am 11:52 Cloudy 48 8.9 45 7.2 89 89 E 12 19 30.33 1027 10 16.09344 0 0
12:52 pm 12:52 Cloudy 49 9.4 45 7.2 86 86 ENE 9 15 30.33 1027 10 16.09344 0 0
1:52 pm 13:52 Cloudy 49 9.4 45 7.2 86 86 E 12 19 30.3 1026 10 16.09344 0 0
2:40 pm 14:40 Cloudy 48 9 45 7 87 87 ENE 10 17 30.3 1026 10 16.09344 0 0
2:52 pm 14:52 Cloudy 49 9.4 46 7.8 90 90 E 10 17 30.27 1025 10 16.09344 0 0
3:52 pm 15:52 Cloudy 50 10 46 7.8 86 86 ENE 13 20 30.24 1024 10 16.09344 0 0
4:52 pm 16:52 Cloudy 49 9.4 46 7.8 90 90 E 9 15 30.24 1024 10 16.09344 0 0
5:23 pm 17:23 Cloudy 49 9.4 46 7.8 90 90 E 12 19 30.27 1025 10 16.09344 0 0
5:52 pm 17:52 Cloudy 49 9.4 46 7.8 90 90 ENE 12 19 30.24 1024 10 16.09344 0 0
6:52 pm 18:52 Cloudy 49 9.4 46 7.8 90 90 E 12 19 30.24 1024 9 14.484096 0 0
7:52 pm 19:52 Cloudy 48 8.9 47 8.3 96 96 E 10 17 30.24 1024 9 14.484096 0 0
8:52 pm 20:52 Cloudy with Light Drizzle 48 8.9 47 8.3 96 96 ENE 9 15 30.24 1024 5 8.04672 0.001 0.001
9:52 pm 21:52 Cloudy with Light Drizzle 48 8.9 47 8.3 96 96 E 9 15 30.24 1024 5 8.04672 0.001 0.001
10:44 pm 22:44 Cloudy with Light Drizzle 48 9 46 8 94 94 E 6 9 30.24 1024 4 6.437376 0 0
10:52 pm 22:52 Cloudy with Light Drizzle 47 8.3 47 8.3 100 100 ENE 7 11 30.21 1023 4 6.437376 0.001 0.001
11:52 pm 23:52 Cloudy with Light Drizzle 47 8.3 46 7.8 97 97 E 10 17 30.21 1023 5 8.04672 0.001 0.001

Powered by AerisWeather